Flag for Russia Weather past 2 weeks in Astrakhan, Russia

Now
57 °F

Broken clouds.


Feels Like: 55 °F
Forecast: 43 / 54 °F
Wind: 8 mph from Southeast

Location: Astrakhan

Current Time: Apr 21, 2015 at 1:21:07 PM

Latest Report: Apr 21, 2015 at 12:30 PM


Visibility: N/A

Pressure: 29.80 "Hg

Humidity: 39%

Dew point: 32 °F

Location of AstrakhanLocation

Historic Weather in Astrakhan — Graph

°F

Astrakhan temperature yesterday

Maximum temperature yesterday: 55 °F (at 12:00 AM)
Minimum temperature yesterday: 41 °F (at 4:30 AM)
Average temperature yesterday: 49 °F

Past Weeks' High & Low Weather Summary

 TemperatureHumidityPressure
High75 °F (Apr 18, 1:00 PM)94% (Apr 14, 8:00 AM)30.30 "Hg (Apr 14, 8:00 AM)
Low36 °F (Apr 15, 4:30 AM)22% (Apr 18, 1:00 PM)29.53 "Hg (Apr 20, 12:30 AM)
Average52 °F61%29.94 "Hg
* Reported Apr 6 12:00 Noon — Apr 21 12:00 Noon, Astrakhan, Weather by CustomWeather, © 2015

Note: Actual official high and low records may vary slightly from our data, if they occured in-between our weather recording intervals... More about our weather records

Advertising

Astrakhan weather history for previous 24 hours

 ConditionsComfort  
Time TempWeatherWind HumidityBarometerVisibility
12:00 PM
Tue, Apr 21
55 °FBroken clouds.6 mph41%29.80 "HgN/A
11:30 AM55 °FBroken clouds.6 mph38%29.80 "HgN/A
11:00 AM55 °FBroken clouds.6 mph38%29.80 "HgN/A
10:30 AM55 °FBroken clouds.6 mph38%29.80 "HgN/A
10:00 AM55 °FScattered clouds.3 mph41%29.80 "HgN/A
9:30 AM55 °FPassing clouds.6 mph41%29.80 "HgN/A
9:00 AM54 °FPassing clouds.8 mph47%29.80 "HgN/A
8:30 AM52 °FPassing clouds.8 mph58%29.83 "HgN/A
8:00 AM52 °FPassing clouds.8 mph50%29.83 "HgN/A
7:30 AM50 °FSunny.6 mph58%29.83 "Hg10 mi
7:00 AM48 °FPassing clouds.3 mph66%29.83 "HgN/A
6:30 AM45 °FSunny.No wind81%29.83 "Hg10 mi
6:00 AM41 °FSunny.No wind87%29.83 "Hg10 mi
5:30 AM37 °FClear.3 mph87%29.80 "Hg10 mi
5:00 AM37 °FClear.No wind87%29.80 "Hg10 mi
4:30 AM39 °FClear.No wind87%29.80 "Hg10 mi
4:00 AM39 °FClear.1 mph87%29.80 "Hg10 mi
3:30 AM37 °FClear.3 mph87%29.80 "Hg10 mi
3:00 AM39 °FClear.6 mph81%29.80 "Hg10 mi
2:30 AM39 °FPassing clouds.6 mph81%29.80 "HgN/A
2:00 AM41 °FClear.6 mph76%29.80 "Hg10 mi
1:30 AM41 °FClear.6 mph76%29.80 "Hg10 mi
1:00 AM41 °FClear.6 mph76%29.80 "Hg10 mi
12:00 AM41 °FClear.3 mph76%29.80 "Hg10 mi
11:30 PM
Mon, Apr 20
41 °FClear.6 mph76%29.80 "Hg10 mi
11:00 PM43 °FClear.6 mph71%29.83 "Hg10 mi
10:30 PM41 °FClear.6 mph76%29.83 "Hg10 mi
10:00 PM43 °FClear.6 mph71%29.83 "Hg10 mi
9:30 PM45 °FClear.6 mph66%29.83 "Hg10 mi
9:00 PM45 °FClear.6 mph66%29.83 "Hg10 mi
8:30 PM46 °FClear.3 mph62%29.83 "Hg10 mi
8:00 PM48 °FClear.6 mph54%29.83 "Hg10 mi
7:30 PM50 °FSunny.6 mph54%29.83 "Hg10 mi
7:00 PM52 °FSunny.6 mph47%29.83 "Hg10 mi
6:30 PM52 °FSunny.6 mph44%29.83 "Hg10 mi
6:00 PM54 °FSunny.8 mph41%29.80 "Hg10 mi
5:30 PM54 °FSunny.10 mph38%29.80 "Hg10 mi
5:00 PM54 °FSunny.10 mph41%29.80 "Hg10 mi
4:30 PM54 °FBroken clouds.10 mph38%29.80 "HgN/A
4:00 PM54 °FSunny.13 mph41%29.80 "Hg10 mi
3:30 PM54 °FPartly sunny.17 mph41%29.80 "HgN/A
3:00 PM54 °FPartly sunny.17 mph38%29.77 "HgN/A
2:30 PM54 °FPartly sunny.15 mph44%29.80 "HgN/A
2:00 PM54 °FPartly sunny.17 mph41%29.80 "HgN/A
1:30 PM54 °FPartly sunny.20 mph44%29.80 "HgN/A
1:00 PM52 °FPartly sunny.20 mph44%29.80 "HgN/A
Weather by CustomWeather, © 2015

See weather overviewHow to use our weather pages